TimeMDT,TemperatureF,Dew PointF,Humidity,Sea Level PressureIn,VisibilityMPH,Wind Direction,Wind SpeedMPH,Gust SpeedMPH,PrecipitationIn,Events,Conditions,WindDirDegrees,DateUTC
12:53 AM,63.0,60.1,90,30.01,10.0,NE,9.2,-,N/A,,Clear,50,2013-09-04 06:53:00
1:53 AM,62.1,60.1,93,30.01,10.0,Calm,Calm,-,N/A,,Clear,0,2013-09-04 07:53:00
2:53 AM,61.0,60.1,97,30.02,10.0,Variable,3.5,-,N/A,,Clear,0,2013-09-04 08:53:00
3:53 AM,63.0,57.9,84,30.04,10.0,East,3.5,-,N/A,,Clear,90,2013-09-04 09:53:00
4:53 AM,62.1,59.0,90,30.06,10.0,ESE,4.6,-,N/A,,Clear,110,2013-09-04 10:53:00
5:53 AM,62.1,61.0,96,30.06,10.0,ENE,3.5,-,N/A,,Scattered Clouds,60,2013-09-04 11:53:00
6:53 AM,62.1,60.1,93,30.09,10.0,East,3.5,-,N/A,,Overcast,90,2013-09-04 12:53:00
7:53 AM,62.1,60.1,93,30.09,10.0,East,6.9,-,0.00,,Partly Cloudy,90,2013-09-04 13:53:00
8:53 AM,64.0,61.0,90,30.09,10.0,East,5.8,-,N/A,,Clear,90,2013-09-04 14:53:00
9:53 AM,69.1,62.1,78,30.09,10.0,Calm,Calm,-,N/A,,Clear,0,2013-09-04 15:53:00
10:53 AM,73.9,60.1,62,30.09,10.0,East,4.6,-,N/A,,Clear,80,2013-09-04 16:53:00
11:53 AM,77.0,60.1,56,30.08,10.0,ENE,5.8,-,N/A,,Clear,70,2013-09-04 17:53:00
12:53 PM,80.1,57.9,47,30.05,10.0,NE,4.6,-,N/A,,Clear,50,2013-09-04 18:53:00
1:53 PM,82.0,57.0,42,30.04,10.0,East,4.6,-,N/A,,Clear,100,2013-09-04 19:53:00
2:53 PM,84.0,57.0,40,30.01,10.0,East,3.5,-,N/A,,Clear,80,2013-09-04 20:53:00
3:53 PM,86.0,55.0,35,29.98,10.0,Calm,Calm,-,N/A,,Clear,0,2013-09-04 21:53:00
4:53 PM,87.1,55.0,33,29.95,10.0,East,5.8,-,N/A,,Clear,90,2013-09-04 22:53:00
5:53 PM,82.9,57.9,42,29.95,10.0,East,5.8,-,N/A,,Clear,80,2013-09-04 23:53:00
6:10 PM,84.2,57.2,40,30.08,10.0,East,8.1,-,N/A,Thunderstorm,Partly Cloudy,100,2013-09-05 00:10:00
6:38 PM,75.2,62.6,65,30.09,9.0,SE,10.4,18.4,0.02,Rain,Light Rain,140,2013-09-05 00:38:00
6:49 PM,75.2,60.8,61,30.08,10.0,East,9.2,-,0.02,Thunderstorm,Thunderstorm,90,2013-09-05 00:49:00
6:53 PM,77.0,59.0,54,29.96,10.0,East,9.2,-,0.02,Thunderstorm,Thunderstorm,90,2013-09-05 00:53:00
7:26 PM,78.8,57.2,47,30.08,10.0,Calm,Calm,-,N/A,,Clear,0,2013-09-05 01:26:00
7:53 PM,75.0,59.0,57,29.96,10.0,Calm,Calm,-,N/A,,Clear,0,2013-09-05 01:53:00
8:53 PM,73.0,59.0,61,29.98,10.0,NW,8.1,-,N/A,,Clear,310,2013-09-05 02:53:00
9:53 PM,70.0,55.0,59,29.99,10.0,NNE,3.5,-,N/A,,Clear,30,2013-09-05 03:53:00
10:53 PM,64.9,57.0,75,29.99,10.0,SSE,3.5,-,N/A,,Clear,160,2013-09-05 04:53:00
11:53 PM,66.9,55.9,68,29.97,10.0,Calm,Calm,-,N/A,,Clear,0,2013-09-05 05:53:00